Wind_Speed
44 44 45 47 48 49 49 50 50 50 48 47 48 49 50 49 49 51 50 48 47 47 45 45 45 45 44 44 45 44 44 43 43 42 42 41 40 39
43 43 43 45 46 48 49 49 50 51 50 48 48 49 50 49 49 50 49 48 46 45 45 44 45 45 43 43 44 43 43 42 42 42 41 41 39 39
42 43 44 44 45 46 47 47 49 49 49 47 47 46 46 47 47 48 49 49 47 46 45 44 43 44 43 44 43 42 41 41 40 41 39 39 39 38
41 42 42 42 43 43 45 46 46 46 46 46 45 44 43 44 45 47 47 48 48 47 46 45 43 42 43 43 42 42 41 39 38 37 36 37 38 37
41 41 40 40 41 42 43 43 43 44 44 44 44 44 43 43 43 44 44 46 47 47 46 45 44 42 41 40 41 41 39 38 37 36 35 36 36 36
40 40 40 40 40 41 41 41 42 42 43 44 43 42 42 42 43 42 42 42 44 46 45 44 42 40 39 39 40 39 38 37 36 35 35 36 36 35
38 39 39 40 39 39 40 40 40 41 42 42 42 42 41 41 42 41 41 40 41 42 42 41 39 38 37 37 38 38 37 36 37 36 36 35 34 33
36 36 37 38 38 38 37 37 38 39 40 40 40 40 40 40 40 41 40 40 39 39 39 38 38 36 36 35 34 34 34 34 35 35 34 33 33 33
35 35 35 35 36 35 35 35 35 36 37 38 38 38 38 39 39 39 37 36 36 36 36 36 36 36 34 32 31 31 32 32 33 33 33 33 33 32
34 34 34 34 33 33 33 34 34 34 33 34 34 34 35 36 36 36 35 34 33 33 33 33 34 34 33 32 30 30 30 31 31 31 31 31 31 30
32 32 32 32 31 32 32 32 32 31 31 31 30 30 31 31 32 32 32 32 31 30 30 30 31 32 31 30 29 30 29 29 29 29 29 29 28 28
30 29 30 30 30 31 30 30 30 29 30 29 29 29 28 28 29 29 29 30 30 29 28 28 29 30 30 29 29 29 29 28 28 27 27 27 27 27
27 27 27 28 29 29 29 29 28 28 27 27 27 27 27 27 27 27 27 27 27 27 26 26 27 28 29 29 28 28 28 27 26 26 25 25 25 25
26 27 27 28 27 27 27 27 27 26 25 25 24 24 24 25 26 26 26 26 26 26 26 25 25 26 27 28 27 26 26 25 24 24 24 24 24 25
25 26 26 26 26 26 25 26 26 26 25 24 23 23 23 23 24 24 25 25 25 25 25 24 24 24 24 24 24 23 23 23 23 23 23 24 23 24
22 22 23 23 23 23 23 23 23 23 23 22 22 22 22 22 22 22 23 23 22 23 23 22 21 21 21 21 21 21 22 22 23 22 22 21 21 22
21 20 21 21 21 21 21 22 21 20 20 20 20 21 21 21 21 21 21 21 21 21 21 20 20 18 18 18 19 19 20 21 21 21 21 21 21 20
19 19 19 19 19 18 19 19 19 19 19 18 19 19 18 19 19 20 20 20 19 19 19 19 19 18 17 17 18 19 19 19 18 18 18 18 18 18
17 18 17 17 17 17 17 17 17 17 16 16 16 16 16 16 17 18 18 18 17 17 17 17 17 17 16 16 16 16 17 17 16 16 16 17 17 16
15 16 16 15 15 16 16 15 14 14 13 14 14 14 14 14 15 15 16 16 16 16 16 16 16 15 16 15 15 14 15 16 16 15 15 15 16 16
13 13 13 13 14 14 13 12 11 11 10 10 11 11 11 11 12 13 14 14 14 14 15 14 14 14 14 14 13 13 14 14 14 14 15 15 15 15
12 12 11 11 11 10 10 9 8 8 9 9 9 9 9 10 10 11 11 12 12 13 14 13 13 13 14 14 14 13 13 13 14 14 14 14 14 13
10 9 9 8 8 7 7 7 7 7 8 8 8 8 8 9 9 9 9 10 10 11 12 12 12 12 13 14 14 13 13 13 13 13 13 13 12 12
Wind_Direction
269 269 269 268 267 266 266 266 266 266 266 266 265 266 266 267 268 266 267 268 269 267 266 268 268 268 268 268 271 272 272 274 275 278 278 278 278 276
269 270 271 270 269 269 268 268 268 268 267 266 266 266 265 266 266 265 265 266 269 266 265 266 268 268 267 268 271 273 272 272 274 276 276 276 275 275
269 270 272 271 271 271 270 269 268 269 269 268 267 267 267 265 265 264 265 265 267 266 265 264 266 268 268 269 271 272 270 271 272 273 274 274 273 274
269 271 272 273 273 272 270 270 270 270 270 270 268 267 267 265 265 265 265 265 266 265 265 265 265 268 269 270 270 271 271 271 271 270 270 271 272 272
270 272 272 273 273 272 272 271 271 271 271 271 270 268 266 265 265 266 266 266 265 265 265 265 266 268 268 269 268 270 269 268 269 270 270 270 272 272
270 270 271 272 273 272 272 272 273 273 273 272 270 267 265 264 265 266 266 265 265 264 264 265 266 267 267 268 267 267 267 265 266 268 270 270 271 271
270 271 271 272 274 274 274 274 274 274 273 272 270 268 265 264 265 264 264 264 264 264 264 263 264 266 266 268 266 266 266 266 265 266 268 269 269 269
271 272 272 273 274 275 274 273 274 274 274 273 270 268 265 264 263 263 264 264 264 263 264 264 264 263 265 267 266 264 263 264 265 266 267 267 266 268
273 273 273 273 273 272 272 273 275 276 275 273 270 268 265 263 262 262 262 262 262 260 261 262 263 263 264 264 263 262 262 264 266 268 270 268 267 268
273 272 273 272 271 271 271 272 275 276 276 275 274 270 265 263 261 260 260 259 259 259 260 261 261 261 263 263 263 264 265 267 269 268 269 268 267 267
274 273 272 271 270 271 273 274 274 275 277 277 275 270 266 264 261 259 257 257 256 258 260 260 260 259 260 261 262 264 266 267 267 267 267 266 266 267
272 272 271 271 271 272 273 274 273 274 275 275 272 268 266 265 261 259 257 256 255 255 257 259 260 259 258 259 260 261 263 263 265 265 265 266 267 268
272 272 272 272 273 274 274 273 273 274 274 273 269 266 264 263 260 257 256 255 253 253 255 258 259 258 258 258 259 260 260 260 261 261 263 265 267 269
273 273 273 275 276 278 277 275 274 274 273 272 269 266 263 261 258 256 254 252 250 249 251 255 258 259 259 259 259 259 259 259 260 262 263 266 267 270
274 274 275 277 277 277 276 274 273 273 272 270 270 267 263 260 256 253 252 251 250 250 252 255 259 260 258 258 258 257 256 257 259 261 263 264 267 271
278 278 277 278 279 278 275 274 274 273 271 269 267 265 263 259 255 253 252 252 252 249 251 253 256 259 258 257 256 255 255 256 257 258 260 265 268 271
276 278 279 280 281 279 277 275 274 275 274 270 268 266 263 258 257 256 254 254 253 247 247 250 253 258 257 254 252 253 252 253 256 258 262 267 267 269
276 280 281 281 280 279 280 279 277 277 275 272 270 268 264 262 258 255 254 254 252 247 244 247 250 252 254 254 253 252 251 252 255 257 261 265 267 269
278 279 281 280 280 281 282 282 280 277 274 272 268 264 263 263 260 255 252 250 247 243 240 243 246 248 248 249 249 248 247 249 252 255 260 265 267 268
280 283 281 281 283 283 282 280 279 276 272 267 264 261 260 259 257 253 250 248 245 242 239 240 243 243 243 243 244 242 243 247 250 256 259 265 267 267
281 285 285 283 283 283 282 277 276 275 270 265 263 260 258 255 253 250 247 245 244 241 235 236 239 240 242 242 241 241 242 248 253 256 262 267 269 266
284 287 286 284 283 283 281 276 274 274 270 267 262 259 256 253 250 247 245 242 240 240 236 237 240 240 239 241 242 243 246 250 253 256 262 265 267 266
282 285 287 285 286 288 284 278 276 274 268 263 258 255 255 253 250 244 241 242 240 239 237 238 240 240 241 245 244 243 245 251 254 256 260 263 267 271
Height
5607 5607 5608 5608 5609 5610 5611 5612 5613 5615 5619 5621 5622 5621 5621 5621 5622 5623 5624 5625 5625 5627 5628 5629 5629 5630 5631 5631 5632 5633 5634 5634 5634 5634 5633 5632 5632 5632
5596 5596 5596 5596 5597 5597 5598 5599 5599 5600 5602 5605 5606 5607 5607 5607 5608 5609 5610 5612 5613 5614 5616 5617 5618 5618 5619 5620 5620 5621 5621 5622 5622 5622 5622 5621 5621 5622
5585 5585 5585 5585 5585 5585 5586 5586 5586 5586 5588 5591 5591 5592 5592 5593 5594 5595 5597 5599 5600 5602 5603 5605 5606 5606 5607 5608 5608 5609 5609 5610 5611 5611 5610 5611 5611 5612
5574 5574 5574 5574 5574 5574 5574 5574 5575 5575 5575 5577 5578 5578 5579 5580 5581 5583 5584 5586 5588 5590 5591 5593 5594 5595 5596 5596 5597 5597 5598 5599 5600 5600 5600 5601 5602 5602
5564 5564 5564 5564 5564 5564 5563 5563 5564 5563 5563 5564 5566 5566 5567 5568 5569 5570 5572 5573 5575 5577 5579 5581 5582 5583 5584 5585 5585 5586 5587 5588 5589 5589 5590 5591 5592 5592
5554 5554 5554 5554 5553 5553 5553 5553 5552 5552 5552 5552 5553 5554 5555 5556 5557 5559 5560 5561 5563 5565 5567 5569 5571 5572 5573 5574 5575 5576 5577 5577 5579 5580 5581 5582 5582 5583
5544 5543 5543 5543 5543 5542 5542 5542 5541 5541 5541 5541 5542 5543 5544 5545 5546 5547 5548 5550 5552 5554 5556 5559 5561 5562 5563 5563 5564 5565 5566 5567 5569 5570 5571 5572 5573 5574
5534 5534 5534 5533 5533 5532 5532 5532 5531 5531 5531 5531 5531 5532 5533 5534 5535 5535 5537 5540 5542 5544 5546 5548 5550 5552 5553 5554 5554 5555 5556 5558 5560 5561 5562 5563 5564 5565
5525 5525 5525 5524 5524 5523 5523 5523 5522 5521 5521 5521 5520 5521 5521 5522 5524 5526 5527 5528 5531 5533 5535 5538 5540 5542 5543 5544 5545 5546 5548 5549 5551 5552 5553 5554 5555 5557
5516 5516 5516 5515 5515 5515 5515 5514 5513 5512 5512 5511 5511 5511 5510 5511 5513 5515 5517 5519 5522 5523 5526 5529 5530 5532 5534 5535 5536 5538 5540 5541 5542 5543 5544 5546 5547 5549
5507 5507 5507 5507 5507 5507 5506 5506 5505 5504 5503 5502 5502 5502 5502 5503 5504 5506 5508 5511 5513 5516 5517 5520 5522 5524 5526 5527 5529 5530 5531 5533 5534 5535 5537 5538 5540 5541
5500 5499 5499 5499 5499 5498 5498 5498 5497 5496 5495 5495 5494 5494 5494 5495 5496 5498 5500 5503 5505 5508 5509 5512 5514 5516 5519 5520 5521 5522 5524 5525 5527 5528 5530 5531 5533 5534
5492 5492 5491 5491 5490 5490 5489 5489 5489 5488 5488 5487 5487 5487 5487 5488 5489 5491 5493 5495 5498 5500 5503 5504 5506 5508 5510 5513 5514 5515 5517 5518 5520 5521 5523 5524 5526 5527
5485 5484 5484 5483 5483 5482 5482 5481 5481 5481 5481 5481 5481 5480 5481 5481 5483 5485 5487 5489 5491 5494 5495 5497 5499 5501 5503 5505 5507 5508 5509 5511 5513 5515 5517 5518 5518 5519
5477 5477 5476 5476 5475 5475 5474 5474 5474 5474 5474 5474 5474 5474 5475 5475 5477 5478 5480 5482 5484 5486 5488 5490 5492 5494 5496 5498 5500 5502 5504 5505 5507 5508 5510 5511 5512 5513
5470 5470 5469 5468 5468 5468 5468 5467 5467 5467 5467 5467 5467 5468 5468 5469 5470 5472 5474 5475 5477 5480 5481 5483 5485 5487 5490 5492 5494 5496 5498 5500 5501 5502 5504 5505 5506 5506
5464 5464 5463 5463 5462 5461 5461 5461 5461 5460 5460 5461 5461 5462 5462 5463 5464 5466 5467 5469 5471 5473 5475 5477 5479 5481 5483 5485 5488 5490 5492 5494 5495 5497 5498 5499 5500 5501
5459 5458 5458 5457 5456 5455 5455 5455 5454 5454 5455 5455 5456 5456 5457 5458 5459 5460 5462 5464 5465 5468 5470 5471 5473 5475 5478 5480 5483 5485 5487 5488 5490 5491 5492 5494 5495 5495
5454 5453 5453 5452 5451 5450 5450 5450 5450 5449 5449 5450 5451 5451 5452 5453 5454 5455 5457 5459 5461 5463 5465 5467 5468 5471 5474 5476 5478 5480 5482 5484 5485 5486 5487 5489 5490 5490
5449 5449 5448 5448 5447 5446 5446 5445 5445 5445 5446 5446 5446 5447 5448 5449 5450 5451 5453 5454 5456 5458 5461 5462 5464 5466 5469 5473 5474 5476 5477 5479 5480 5482 5483 5483 5484 5485
5446 5445 5444 5444 5443 5443 5442 5442 5442 5442 5443 5443 5443 5444 5445 5446 5447 5448 5449 5451 5453 5455 5457 5459 5461 5463 5465 5468 5470 5471 5473 5474 5476 5477 5479 5479 5480 5481
5442 5442 5441 5441 5440 5439 5439 5439 5440 5440 5440 5441 5441 5442 5442 5443 5444 5445 5446 5448 5450 5452 5455 5456 5458 5460 5462 5464 5466 5468 5469 5470 5472 5473 5474 5475 5476 5476
5439 5439 5438 5438 5438 5437 5437 5437 5438 5438 5438 5439 5439 5440 5441 5442 5443 5443 5444 5446 5448 5450 5452 5453 5455 5457 5459 5461 5463 5464 5465 5467 5468 5469 5470 5470 5471 5472